Location: Unspecified
(0.0000°N, 0.0000°E)
Time: 14:45:31
(UTC+00:00)

A-11 Canister half - Pass Details

Date: 21 May 2026
Orbit: 1515 x 1685 km, 47.2° (Epoch: 8 June)

Event Time Altitude Azimuth Distance (km) Brightness Sun altitude
Rises 18:56:29 0° 262° (W) 4,873 12.8 -14.0°
Reaches altitude 10° 19:01:48 10° 285° (WNW) 3,849 12.5 -15.2°
Maximum altitude 19:06:28 14° 314° (NW) 3,478 11.8 -16.3°
Drops below altitude 10° 19:11:06 10° 343° (NNW) 3,777 11.6 -17.4°
Sets 19:16:18 0° 7° (N) 4,721 11.7 -18.6°
